Hourly Weather Holmogory

Today, 12 April, Monday

Time Temperature Precipitation Wind Pressure Humidity
00:00 0°C° 0 mm 5 mps 767 mmHg 73%
01:00 0°C° 0 mm 5 mps 768 mmHg 75%
02:00 0°C° 0 mm 5 mps 769 mmHg 77%
03:00 0°C° 0 mm 4 mps 770 mmHg 78%
04:00 -1°C° 0 mm 4 mps 770 mmHg 80%
05:00 -1°C° 0 mm 4 mps 771 mmHg 81%
06:00 0°C° 0 mm 3 mps 771 mmHg 83%
07:00 0°C° 0 mm 4 mps 772 mmHg 79%
08:00 +1°C° 0 mm 4 mps 772 mmHg 76%
09:00 +3°C° 0 mm 4 mps 772 mmHg 71%
10:00 +4°C° 0 mm 4 mps 773 mmHg 64%
11:00 +5°C° 0 mm 4 mps 773 mmHg 56%
12:00 +6°C° 0 mm 4 mps 773 mmHg 48%
13:00 +7°C° 0 mm 4 mps 772 mmHg 50%
14:00 +7°C° 0 mm 4 mps 772 mmHg 51%
15:00 +9°C° 0 mm 3 mps 772 mmHg 52%
16:00 +8°C° 0.1 mm 3 mps 771 mmHg 60%
17:00 +7°C° 0.1 mm 3 mps 771 mmHg 67%
18:00 +5°C° 0.1 mm 3 mps 770 mmHg 75%
19:00 +5°C° 0 mm 3 mps 770 mmHg 80%
20:00 +5°C° 0 mm 3 mps 769 mmHg 84%
21:00 +5°C° 0 mm 4 mps 769 mmHg 89%
22:00 +6°C° 0 mm 4 mps 769 mmHg 90%
23:00 +6°C° 0 mm 4 mps 769 mmHg 91%

Tomorrow, 13 April, Tuesday

Time Temperature Precipitation Wind Pressure Humidity
00:00 +7°C° 0 mm 4 mps 768 mmHg 92%
01:00 +7°C° 0 mm 4 mps 768 mmHg 92%
02:00 +7°C° 0 mm 4 mps 768 mmHg 92%
03:00 +7°C° 0 mm 4 mps 767 mmHg 91%
04:00 +6°C° 0 mm 4 mps 767 mmHg 91%
05:00 +6°C° 0 mm 4 mps 767 mmHg 91%
06:00 +5°C° 0 mm 4 mps 766 mmHg 91%
07:00 +6°C° 0 mm 4 mps 766 mmHg 89%
08:00 +6°C° 0 mm 4 mps 765 mmHg 86%
09:00 +7°C° 0 mm 4 mps 765 mmHg 84%
10:00 +7°C° 0 mm 4 mps 765 mmHg 84%
11:00 +7°C° 0 mm 4 mps 765 mmHg 85%
12:00 +7°C° 0 mm 4 mps 764 mmHg 85%
13:00 +8°C° 0 mm 4 mps 764 mmHg 85%
14:00 +9°C° 0 mm 3 mps 764 mmHg 85%
15:00 +9°C° 0 mm 3 mps 764 mmHg 85%
16:00 +9°C° 0 mm 3 mps 764 mmHg 84%
17:00 +9°C° 0 mm 3 mps 764 mmHg 83%
18:00 +9°C° 0 mm 3 mps 763 mmHg 81%
19:00 +8°C° 0 mm 3 mps 764 mmHg 84%
20:00 +8°C° 0 mm 3 mps 764 mmHg 87%
21:00 +7°C° 0 mm 2 mps 764 mmHg 91%
22:00 +6°C° 0 mm 2 mps 764 mmHg 92%
23:00 +6°C° 0 mm 2 mps 763 mmHg 94%

Day after tomorrow, 14 April, Wednesday

Time Temperature Precipitation Wind Pressure Humidity
00:00 +5°C° 0 mm 2 mps 763 mmHg 96%
01:00 +5°C° 0 mm 2 mps 763 mmHg 96%
02:00 +5°C° 0 mm 2 mps 763 mmHg 96%
03:00 +4°C° 0 mm 2 mps 763 mmHg 96%
04:00 +4°C° 0 mm 2 mps 763 mmHg 96%
05:00 +5°C° 0 mm 2 mps 762 mmHg 96%
06:00 +5°C° 0 mm 2 mps 762 mmHg 96%
07:00 +6°C° 0 mm 2 mps 762 mmHg 93%
08:00 +6°C° 0 mm 2 mps 762 mmHg 91%
09:00 +7°C° 0 mm 2 mps 761 mmHg 89%
10:00 +7°C° 0.1 mm 2 mps 761 mmHg 89%
11:00 +7°C° 0.1 mm 2 mps 761 mmHg 90%
12:00 +7°C° 0.1 mm 2 mps 761 mmHg 90%
13:00 +6°C° 0.7 mm 2 mps 761 mmHg 92%
14:00 +5°C° 0.7 mm 2 mps 761 mmHg 94%
15:00 +4°C° 0.7 mm 2 mps 761 mmHg 95%
16:00 +4°C° 0.7 mm 2 mps 761 mmHg 95%
17:00 +3°C° 0.7 mm 2 mps 761 mmHg 96%
18:00 +4°C° 0.7 mm 1 mps 761 mmHg 96%
19:00 +4°C° 0.2 mm 1 mps 762 mmHg 96%
20:00 +4°C° 0.2 mm 1 mps 762 mmHg 95%
21:00 +4°C° 0.2 mm 1 mps 762 mmHg 95%
22:00 +3°C° 0 mm 2 mps 762 mmHg 93%
23:00 +3°C° 0 mm 2 mps 763 mmHg 92%

15 April, Thursday

Time Temperature Precipitation Wind Pressure Humidity
00:00 +3°C° 0 mm 2 mps 763 mmHg 91%
01:00 +2°C° 0 mm 2 mps 764 mmHg 89%
02:00 +1°C° 0 mm 2 mps 764 mmHg 87%
03:00 -1°C° 0 mm 2 mps 765 mmHg 85%
04:00 -1°C° 0 mm 2 mps 765 mmHg 85%
05:00 -1°C° 0 mm 2 mps 766 mmHg 84%
06:00 -1°C° 0 mm 2 mps 766 mmHg 84%
07:00 +1°C° 0 mm 2 mps 766 mmHg 76%
08:00 +2°C° 0 mm 2 mps 767 mmHg 68%
09:00 +2°C° 0 mm 3 mps 767 mmHg 60%
10:00 +3°C° 0 mm 3 mps 767 mmHg 56%
11:00 +4°C° 0 mm 3 mps 768 mmHg 53%
12:00 +4°C° 0 mm 3 mps 768 mmHg 49%
13:00 +5°C° 0 mm 3 mps 768 mmHg 48%
14:00 +5°C° 0 mm 3 mps 768 mmHg 47%
15:00 +5°C° 0 mm 3 mps 768 mmHg 46%
16:00 +5°C° 0 mm 3 mps 769 mmHg 48%
17:00 +5°C° 0 mm 2 mps 769 mmHg 50%
18:00 +5°C° 0 mm 2 mps 769 mmHg 51%
19:00 +4°C° 0 mm 2 mps 769 mmHg 58%
20:00 +3°C° 0 mm 1 mps 769 mmHg 64%
21:00 +2°C° 0 mm 1 mps 769 mmHg 70%
22:00 +2°C° 0 mm 1 mps 769 mmHg 71%
23:00 +2°C° 0 mm 1 mps 770 mmHg 72%

16 April, Friday

Time Temperature Precipitation Wind Pressure Humidity
00:00 +1°C° 0 mm 1 mps 770 mmHg 72%
01:00 +1°C° 0 mm 1 mps 770 mmHg 73%
02:00 +1°C° 0 mm 1 mps 770 mmHg 73%
03:00 +1°C° 0 mm 1 mps 770 mmHg 73%
04:00 +2°C° 0 mm 1 mps 770 mmHg 73%
05:00 +2°C° 0 mm 1 mps 770 mmHg 74%
06:00 +2°C° 0 mm 1 mps 771 mmHg 74%
07:00 +2°C° 0 mm 2 mps 771 mmHg 72%
08:00 +3°C° 0 mm 2 mps 771 mmHg 69%
09:00 +4°C° 0 mm 3 mps 771 mmHg 67%
10:00 +4°C° 0 mm 3 mps 772 mmHg 61%
11:00 +5°C° 0 mm 3 mps 772 mmHg 56%
12:00 +5°C° 0 mm 4 mps 772 mmHg 51%
13:00 +5°C° 0 mm 4 mps 773 mmHg 48%
14:00 +5°C° 0 mm 4 mps 773 mmHg 45%
15:00 +5°C° 0 mm 4 mps 774 mmHg 43%
16:00 +5°C° 0 mm 4 mps 774 mmHg 46%
17:00 +4°C° 0 mm 4 mps 775 mmHg 50%
18:00 +4°C° 0 mm 3 mps 775 mmHg 53%
19:00 +3°C° 0 mm 3 mps 775 mmHg 60%
20:00 +1°C° 0 mm 3 mps 776 mmHg 67%
21:00 +1°C° 0 mm 2 mps 776 mmHg 73%
22:00 +1°C° 0 mm 2 mps 776 mmHg 77%
23:00 -1°C° 0 mm 2 mps 776 mmHg 82%

17 April, Saturday

Time Temperature Precipitation Wind Pressure Humidity
00:00 -1°C° 0 mm 2 mps 777 mmHg 86%
01:00 -1°C° 0 mm 2 mps 777 mmHg 84%
02:00 -1°C° 0 mm 3 mps 777 mmHg 83%
03:00 -1°C° 0 mm 3 mps 776 mmHg 81%
04:00 -1°C° 0 mm 3 mps 776 mmHg 76%
05:00 -2°C° 0 mm 4 mps 776 mmHg 71%
06:00 -1°C° 0 mm 4 mps 776 mmHg 66%
07:00 0°C° 0 mm 4 mps 776 mmHg 64%
08:00 +1°C° 0 mm 4 mps 776 mmHg 61%
09:00 +3°C° 0 mm 4 mps 776 mmHg 59%
10:00 +4°C° 0 mm 4 mps 776 mmHg 59%
11:00 +5°C° 0 mm 4 mps 776 mmHg 59%
12:00 +6°C° 0 mm 4 mps 776 mmHg 58%
13:00 +6°C° 0 mm 4 mps 776 mmHg 57%
14:00 +6°C° 0 mm 4 mps 776 mmHg 56%
15:00 +7°C° 0 mm 4 mps 776 mmHg 54%
16:00 +7°C° 0 mm 3 mps 776 mmHg 56%
17:00 +7°C° 0 mm 3 mps 776 mmHg 58%
18:00 +5°C° 0 mm 3 mps 776 mmHg 59%
19:00 +5°C° 0 mm 2 mps 776 mmHg 66%
20:00 +4°C° 0 mm 2 mps 776 mmHg 72%
21:00 +3°C° 0 mm 1 mps 775 mmHg 79%
22:00 +3°C° 0 mm 1 mps 775 mmHg 80%
23:00 +2°C° 0 mm 2 mps 775 mmHg 82%
Show more